When you browse on this site, cookies collect data to enhance your experience and personalize the content and advertising you see.
Visit our Privacy Policy to learn more. By continuing to use the site, you agree to this use of cookies and data.
  • In Czech Republic
  • List of Countries
  • For 7 days
  • Water Temperature
  • Satellite Maps
  • Weather Map
  • Weather Widgets
  • user-avatar
    Login

    Hourly Weather Durres

    Today, 16 January, Wednesday

    Time Temperature Precipitation Wind Pressure Humidity
    00:00 -3°C° 0 mm 6 mps 766 mmHg 50%
    01:00 -1°C° 0 mm 4 mps 765 mmHg 49%
    02:00 -1°C° 0 mm 4 mps 765 mmHg 48%
    03:00 0°C° 0 mm 3 mps 765 mmHg 48%
    04:00 0°C° 0 mm 3 mps 766 mmHg 47%
    05:00 0°C° 0 mm 3 mps 766 mmHg 46%
    06:00 0°C° 0 mm 3 mps 766 mmHg 45%
    07:00 0°C° 0 mm 3 mps 766 mmHg 41%
    08:00 +2°C° 0 mm 3 mps 766 mmHg 38%
    09:00 +3°C° 0 mm 4 mps 766 mmHg 36%
    10:00 +5°C° 0 mm 4 mps 766 mmHg 33%
    11:00 +7°C° 0 mm 3 mps 766 mmHg 36%
    12:00 +7°C° 0 mm 3 mps 766 mmHg 39%
    13:00 +8°C° 0 mm 2 mps 766 mmHg 42%
    14:00 +8°C° 0 mm 2 mps 766 mmHg 48%
    15:00 +7°C° 0 mm 2 mps 766 mmHg 53%
    16:00 +6°C° 0 mm 2 mps 765 mmHg 59%
    17:00 +5°C° 0 mm 2 mps 766 mmHg 60%
    18:00 +4°C° 0 mm 3 mps 766 mmHg 62%
    19:00 +3°C° 0 mm 3 mps 766 mmHg 63%
    20:00 +3°C° 0 mm 4 mps 766 mmHg 63%
    21:00 +1°C° 0 mm 4 mps 766 mmHg 63%
    22:00 +1°C° 0 mm 4 mps 766 mmHg 63%
    23:00 +1°C° 0 mm 4 mps 766 mmHg 63%

    Tomorrow, 17 January, Thursday

    Time Temperature Precipitation Wind Pressure Humidity
    00:00 +1°C° 0 mm 4 mps 766 mmHg 63%
    01:00 +1°C° 0 mm 4 mps 766 mmHg 62%
    02:00 +1°C° 0 mm 4 mps 766 mmHg 62%
    03:00 +1°C° 0 mm 4 mps 766 mmHg 62%
    04:00 +1°C° 0 mm 4 mps 765 mmHg 61%
    05:00 +1°C° 0 mm 4 mps 765 mmHg 61%
    06:00 +1°C° 0 mm 4 mps 765 mmHg 61%
    07:00 +1°C° 0 mm 4 mps 765 mmHg 61%
    08:00 +4°C° 0 mm 4 mps 765 mmHg 57%
    09:00 +6°C° 0 mm 4 mps 765 mmHg 53%
    10:00 +8°C° 0 mm 4 mps 765 mmHg 49%
    11:00 +10°C° 0 mm 4 mps 764 mmHg 46%
    12:00 +11°C° 0 mm 4 mps 764 mmHg 43%
    13:00 +12°C° 0 mm 3 mps 764 mmHg 40%
    14:00 +11°C° 0 mm 4 mps 764 mmHg 44%
    15:00 +11°C° 0 mm 4 mps 763 mmHg 47%
    16:00 +10°C° 0 mm 4 mps 763 mmHg 50%
    17:00 +8°C° 0 mm 5 mps 763 mmHg 50%
    18:00 +7°C° 0 mm 5 mps 763 mmHg 50%
    19:00 +6°C° 0 mm 5 mps 764 mmHg 50%
    20:00 +5°C° 0 mm 6 mps 764 mmHg 48%
    21:00 +5°C° 0 mm 6 mps 764 mmHg 46%
    22:00 +5°C° 0 mm 6 mps 763 mmHg 44%
    23:00 +5°C° 0 mm 6 mps 763 mmHg 47%

    Day after tomorrow, 18 January, Friday

    Time Temperature Precipitation Wind Pressure Humidity
    00:00 +5°C° 0 mm 6 mps 763 mmHg 49%
    01:00 +7°C° 0 mm 6 mps 763 mmHg 52%
    02:00 +7°C° 0.1 mm 6 mps 763 mmHg 57%
    03:00 +7°C° 0.1 mm 6 mps 762 mmHg 61%
    04:00 +7°C° 0.1 mm 6 mps 762 mmHg 66%
    05:00 +7°C° 0.1 mm 6 mps 762 mmHg 69%
    06:00 +7°C° 0.1 mm 5 mps 762 mmHg 71%
    07:00 +7°C° 0.1 mm 5 mps 762 mmHg 74%
    08:00 +8°C° 0 mm 5 mps 762 mmHg 72%
    09:00 +9°C° 0 mm 6 mps 762 mmHg 71%
    10:00 +10°C° 0 mm 6 mps 762 mmHg 69%
    11:00 +11°C° 0 mm 6 mps 762 mmHg 68%
    12:00 +13°C° 0 mm 6 mps 762 mmHg 67%
    13:00 +14°C° 0 mm 6 mps 762 mmHg 66%
    14:00 +13°C° 0.2 mm 5 mps 762 mmHg 69%
    15:00 +13°C° 0.2 mm 5 mps 762 mmHg 71%
    16:00 +12°C° 0.2 mm 5 mps 762 mmHg 74%
    17:00 +10°C° 0.3 mm 5 mps 762 mmHg 76%
    18:00 +9°C° 0.3 mm 5 mps 762 mmHg 78%
    19:00 +8°C° 0.3 mm 5 mps 763 mmHg 80%
    20:00 +8°C° 0.1 mm 5 mps 763 mmHg 79%
    21:00 +7°C° 0.1 mm 5 mps 763 mmHg 78%
    22:00 +7°C° 0.1 mm 4 mps 763 mmHg 77%
    23:00 +7°C° 0 mm 4 mps 763 mmHg 76%

    19 January, Saturday

    Time Temperature Precipitation Wind Pressure Humidity
    00:00 +7°C° 0 mm 5 mps 763 mmHg 74%
    01:00 +6°C° 0 mm 5 mps 763 mmHg 73%
    02:00 +6°C° 0.1 mm 5 mps 763 mmHg 73%
    03:00 +6°C° 0.1 mm 5 mps 763 mmHg 72%
    04:00 +6°C° 0.1 mm 5 mps 762 mmHg 71%
    05:00 +6°C° 0.1 mm 5 mps 763 mmHg 71%
    06:00 +6°C° 0.1 mm 5 mps 763 mmHg 71%
    07:00 +6°C° 0.1 mm 5 mps 763 mmHg 71%
    08:00 +8°C° 0 mm 5 mps 763 mmHg 67%
    09:00 +9°C° 0 mm 5 mps 763 mmHg 64%
    10:00 +12°C° 0 mm 5 mps 763 mmHg 60%
    11:00 +13°C° 0 mm 5 mps 762 mmHg 58%
    12:00 +14°C° 0 mm 5 mps 762 mmHg 56%
    13:00 +15°C° 0 mm 5 mps 761 mmHg 54%
    14:00 +14°C° 0.5 mm 6 mps 761 mmHg 60%
    15:00 +12°C° 0.5 mm 7 mps 761 mmHg 67%
    16:00 +11°C° 0.5 mm 8 mps 761 mmHg 73%
    17:00 +11°C° 0.8 mm 8 mps 761 mmHg 76%
    18:00 +10°C° 0.8 mm 8 mps 761 mmHg 78%
    19:00 +9°C° 0.8 mm 7 mps 761 mmHg 81%
    20:00 +9°C° 0.5 mm 7 mps 761 mmHg 81%
    21:00 +9°C° 0.5 mm 7 mps 761 mmHg 80%
    22:00 +7°C° 0.5 mm 8 mps 761 mmHg 80%
    23:00 +7°C° 0.7 mm 8 mps 761 mmHg 79%

    20 January, Sunday

    Time Temperature Precipitation Wind Pressure Humidity
    00:00 +7°C° 0.7 mm 8 mps 760 mmHg 79%
    01:00 +7°C° 0.7 mm 8 mps 760 mmHg 79%
    02:00 +7°C° 1.2 mm 8 mps 760 mmHg 79%
    03:00 +7°C° 1.2 mm 8 mps 760 mmHg 80%
    04:00 +7°C° 1.2 mm 8 mps 759 mmHg 80%
    05:00 +7°C° 0.5 mm 8 mps 759 mmHg 79%
    06:00 +7°C° 0.5 mm 8 mps 759 mmHg 79%
    07:00 +6°C° 0.5 mm 8 mps 759 mmHg 78%
    08:00 +7°C° 0.1 mm 8 mps 760 mmHg 74%
    09:00 +10°C° 0.1 mm 8 mps 760 mmHg 70%
    10:00 +11°C° 0.1 mm 8 mps 760 mmHg 67%
    11:00 +11°C° 0.5 mm 8 mps 760 mmHg 67%
    12:00 +12°C° 0.5 mm 8 mps 759 mmHg 67%
    13:00 +12°C° 0.5 mm 8 mps 759 mmHg 67%
    14:00 +12°C° 0.8 mm 7 mps 759 mmHg 69%
    15:00 +11°C° 0.8 mm 7 mps 759 mmHg 71%
    16:00 +11°C° 0.8 mm 6 mps 759 mmHg 73%
    17:00 +10°C° 0.7 mm 5 mps 759 mmHg 75%
    18:00 +9°C° 0.7 mm 5 mps 759 mmHg 77%
    19:00 +10°C° 0.7 mm 4 mps 760 mmHg 79%
    20:00 +9°C° 0.7 mm 3 mps 760 mmHg 80%
    21:00 +9°C° 0.7 mm 3 mps 760 mmHg 80%
    22:00 +9°C° 0.7 mm 3 mps 760 mmHg 81%
    23:00 +8°C° 0.5 mm 3 mps 760 mmHg 81%

    21 January, Monday

    Time Temperature Precipitation Wind Pressure Humidity
    00:00 +8°C° 0.5 mm 3 mps 760 mmHg 81%
    01:00 +8°C° 0.5 mm 3 mps 760 mmHg 80%
    02:00 +8°C° 0.1 mm 3 mps 760 mmHg 79%
    03:00 +8°C° 0.1 mm 3 mps 760 mmHg 79%
    04:00 +7°C° 0.1 mm 4 mps 760 mmHg 78%
    05:00 +7°C° 0 mm 4 mps 760 mmHg 78%
    06:00 +6°C° 0 mm 4 mps 760 mmHg 78%
    07:00 +6°C° 0 mm 4 mps 760 mmHg 77%
    08:00 +8°C° 0 mm 4 mps 761 mmHg 73%
    09:00 +10°C° 0 mm 3 mps 761 mmHg 68%
    10:00 +12°C° 0 mm 3 mps 761 mmHg 63%
    11:00 +12°C° 0 mm 3 mps 760 mmHg 60%
    12:00 +14°C° 0 mm 2 mps 760 mmHg 57%
    13:00 +15°C° 0 mm 2 mps 760 mmHg 54%
    14:00 +14°C° 0.2 mm 2 mps 760 mmHg 57%
    15:00 +14°C° 0.2 mm 2 mps 760 mmHg 61%
    16:00 +13°C° 0.2 mm 2 mps 760 mmHg 64%
    17:00 +13°C° 0.3 mm 2 mps 760 mmHg 66%
    18:00 +12°C° 0.3 mm 2 mps 760 mmHg 69%
    19:00 +10°C° 0.3 mm 3 mps 760 mmHg 71%
    20:00 +10°C° 0 mm 3 mps 760 mmHg 72%
    21:00 +9°C° 0 mm 3 mps 761 mmHg 73%
    22:00 +8°C° 0 mm 4 mps 761 mmHg 73%
    23:00 +8°C° 0 mm 4 mps 761 mmHg 73%
    Show more